This is the latest recevied weather packets stored in our database for station/object KP4OZ. If no packets are shown the sender has not sent any weather packets the latest 10 day(s).
| Time | Temp. | Humidity | Pressure | Rain* | Wind** | Luminosity | Snow |
|---|---|---|---|---|---|---|---|
| 1778007261 | 33.89° C | 49% | 1015.8 hPa | 0 mm | - | - | - |
| 1778006956 | 33.33° C | 51% | 1016 hPa | 0 mm | - | - | - |
| 1778006653 | 33.33° C | 49% | 1016.1 hPa | 0 mm | - | - | - |
| 1778006351 | 33.33° C | 47% | 1016.3 hPa | 0 mm | - | - | - |
| 1778006047 | 33.33° C | 49% | 1016.1 hPa | 0 mm | - | - | - |
| 1778005744 | 34.44° C | 49% | 1016.1 hPa | 0 mm | - | - | - |
| 1778005441 | 34.44° C | 48% | 1016.1 hPa | 0 mm | - | - | - |
| 1778005137 | 33.89° C | 50% | 1016.2 hPa | 0 mm | - | - | - |
| 1778004835 | 34.44° C | 49% | 1016.4 hPa | 0 mm | - | - | - |
| 1778004531 | 33.89° C | 49% | 1016.3 hPa | 0 mm | - | - | - |
| 1778004228 | 33.89° C | 50% | 1016.5 hPa | 0 mm | - | - | - |
| 1778003924 | 33.33° C | 51% | 1016.4 hPa | 0 mm | - | - | - |
| 1778003621 | 33.89° C | 51% | 1016.6 hPa | 0 mm | - | - | - |
| 1778003317 | 33.89° C | 51% | 1016.5 hPa | 0 mm | - | - | - |
| 1778003015 | 34.44° C | 50% | 1016.5 hPa | 0 mm | - | - | - |
| 1778002710 | 33.89° C | 51% | 1016.8 hPa | 0 mm | - | - | - |
| 1778002407 | 33.33° C | 51% | 1016.7 hPa | 0 mm | - | - | - |
| 1778002105 | 33.89° C | 51% | 1017 hPa | 0 mm | - | - | - |
| 1778001803 | 33.89° C | 51% | 1017.1 hPa | 0 mm | - | - | - |
| 1778001502 | 33.89° C | 53% | 1017 hPa | 0 mm | - | - | - |
| 1778001199 | 34.44° C | 51% | 1016.8 hPa | 0 mm | - | - | - |
| 1778000895 | 33.89° C | 51% | 1017.1 hPa | 0 mm | - | - | - |
| 1778000592 | 33.89° C | 50% | 1017 hPa | 0 mm | - | - | - |
| 1778000288 | 33.89° C | 50% | 1017.1 hPa | 0 mm | - | - | - |
| 1777999983 | 33.89° C | 52% | 1017.2 hPa | 0 mm | - | - | - |
* Rain latest hour (hover to see other rain measurements)
** Current wind speed in m/s (hover to see current wind gust speed)